This is the latest recevied weather packets stored in our database for station/object KE8WAY. If no packets are shown the sender has not sent any weather packets the latest 10 day(s).
| Time | Temp. | Humidity | Pressure | Rain* | Wind** | Luminosity | Snow |
|---|---|---|---|---|---|---|---|
| 1777358513 | 16.11° C | 91% | 1003.3 hPa | 1.27 mm | - | 0 W/m² | - |
| 1777358211 | 16.11° C | 92% | 1005.8 hPa | 1.27 mm | - | 0 W/m² | - |
| 1777357909 | 16.67° C | 92% | 1006.5 hPa | 0 mm | - | 0 W/m² | - |
| 1777357606 | 16.67° C | 90% | 1007 hPa | 0 mm | - | 0 W/m² | - |
| 1777357302 | 16.67° C | 91% | 1007.3 hPa | 0 mm | - | 0 W/m² | - |
| 1777356999 | 16.67° C | 91% | 1007.4 hPa | 1.78 mm | - | 0 W/m² | - |
| 1777356697 | 16.67° C | 92% | 1007.7 hPa | 3.05 mm | - | 0 W/m² | - |
| 1777356394 | 16.67° C | 92% | 1007.9 hPa | 3.05 mm | - | 0 W/m² | - |
| 1777356090 | 16.67° C | 92% | 1008.2 hPa | 1.78 mm | - | 0 W/m² | - |
| 1777355787 | 16.67° C | 91% | 1008.5 hPa | 1.78 mm | - | 0 W/m² | - |
| 1777355484 | 16.67° C | 91% | 1008.8 hPa | 3.05 mm | - | 0 W/m² | - |
| 1777355181 | 16.67° C | 91% | 1009 hPa | 3.05 mm | - | 0 W/m² | - |
| 1777354877 | 16.67° C | 91% | 1009 hPa | 3.05 mm | - | 0 W/m² | - |
| 1777354573 | 16.67° C | 91% | 1008.9 hPa | 3.05 mm | - | 0 W/m² | - |
| 1777354269 | 16.67° C | 92% | 1008.9 hPa | 4.32 mm | - | 0 W/m² | - |
| 1777353966 | 16.67° C | 92% | 1009.2 hPa | 4.32 mm | - | 0 W/m² | - |
| 1777353663 | 16.67° C | 92% | 1009 hPa | 6.1 mm | - | 0 W/m² | - |
| 1777353360 | 16.67° C | 91% | 1009.1 hPa | 4.83 mm | - | 0 W/m² | - |
| 1777353058 | 16.67° C | 90% | 1009.2 hPa | 3.05 mm | - | 0 W/m² | - |
| 1777352756 | 16.67° C | 90% | 1009 hPa | 3.05 mm | - | 0 W/m² | - |
| 1777352455 | 17.22° C | 90% | 1009.2 hPa | 4.83 mm | - | 0 W/m² | - |
| 1777352151 | 17.22° C | 89% | 1009.2 hPa | 4.83 mm | - | 0 W/m² | - |
| 1777351849 | 17.22° C | 88% | 1009.1 hPa | 4.83 mm | - | 0 W/m² | - |
| 1777351546 | 17.22° C | 86% | 1009.2 hPa | 3.05 mm | - | 0 W/m² | - |
| 1777351244 | 17.78° C | 86% | 1008.9 hPa | 0 mm | - | 0 W/m² | - |
* Rain latest hour (hover to see other rain measurements)
** Current wind speed in m/s (hover to see current wind gust speed)